Home > Weather > Setúbal > Past weeks

Flag for Portugal Weather for the Past 2 Weeks in Setúbal, Portugal

Now
61 °F

Scattered showers. Partly sunny.


Feels Like: 61 °F
Forecast: 59 / 64 °F
Wind: 12 mph from West

Location: Lisbon Portela Airport

Current Time: Feb 11, 2016 at 11:36:38 AM

Latest Report: Feb 11, 2016 at 11:00 AM


Visibility: N/A

Pressure: 30.09 "Hg

Humidity: 88%

Dew point: 57 °F

Location of SetúbalLocation

Historic Weather in Setúbal — Graph

°F

Setúbal Temperature Yesterday

Maximum temperature yesterday: 61 °F (at 12:00 PM)
Minimum temperature yesterday: 57 °F (at 3:00 AM)
Average temperature yesterday: 59 °F

High & Low Weather Summary for the Past Weeks

 TemperatureHumidityPressure
High63 °F (Feb 1, 1:30 PM)100% (Jan 27, 10:00 AM)30.66 "Hg (Jan 27, 10:00 AM)
Low45 °F (Feb 5, 6:30 AM)45% (Feb 4, 2:00 PM)30.04 "Hg (Feb 6, 4:00 PM)
Average56 °F80%30.37 "Hg
* Reported Jan 27 10:00 AM — Feb 11 10:30 AM, Setúbal, Weather by CustomWeather, © 2016

Note: Actual official high and low records may vary slightly from our data, if they occured in-between our weather recording intervals... More about our weather records

Advertising

Setúbal Weather History for the Previous 24 Hours

 ConditionsComfort  
Time TempWeatherWind HumidityBarometerVisibility
10:30 AM
Thu, Feb 11
61 °FPartly sunny.13 mph88%30.09 "HgN/A
10:00 AM59 °FBroken clouds.13 mph94%30.09 "HgN/A
9:30 AM59 °FDrizzle. Broken clouds.9 mph100%30.09 "Hg3 mi
9:00 AM59 °FDrizzle. Fog.10 mph94%30.09 "Hg2 mi
8:30 AM59 °FDrizzle. Partly sunny.9 mph94%30.09 "Hg1 mi
8:00 AM59 °FDrizzle. Partly sunny.8 mph94%30.07 "Hg5 mi
7:30 AM59 °FDrizzle. Fog.9 mph94%30.07 "Hg1 mi
7:00 AM57 °FPassing clouds.9 mph100%30.07 "Hg2 mi
6:30 AM59 °FPartly cloudy.10 mph94%30.07 "Hg4 mi
6:00 AM59 °FPartly cloudy.10 mph94%30.07 "Hg2 mi
5:30 AM59 °FPartly cloudy.10 mph94%30.07 "Hg4 mi
5:00 AM59 °FPassing clouds.10 mph94%30.04 "HgN/A
4:30 AM59 °FPassing clouds.12 mph94%30.07 "HgN/A
4:00 AM57 °FPassing clouds.12 mph100%30.07 "Hg3 mi
3:30 AM57 °FPassing clouds.10 mph100%30.09 "Hg2 mi
3:00 AM57 °FPassing clouds.10 mph100%30.09 "Hg4 mi
2:30 AM57 °FPassing clouds.10 mph94%30.09 "Hg4 mi
2:00 AM57 °FPassing clouds.10 mph94%30.09 "HgN/A
1:30 AM57 °FPassing clouds.8 mph94%30.09 "HgN/A
1:00 AM57 °FPassing clouds.8 mph94%30.09 "HgN/A
12:30 AM59 °FPassing clouds.10 mph88%30.09 "HgN/A
12:00 AM59 °FPartly cloudy.9 mph88%30.12 "HgN/A
11:30 PM
Wed, Feb 10
59 °FPartly cloudy.12 mph94%30.12 "HgN/A
11:00 PM59 °FDrizzle. Fog.8 mph94%30.09 "Hg2 mi
10:30 PM57 °FPassing clouds.8 mph100%30.12 "Hg2 mi
9:30 PM59 °FDrizzle. Fog.8 mph94%30.12 "Hg2 mi
9:00 PM59 °FPassing clouds.8 mph94%30.12 "HgN/A
8:30 PM59 °FPartly cloudy.8 mph94%30.12 "HgN/A
8:00 PM59 °FPassing clouds.6 mph94%30.12 "Hg5 mi
7:30 PM59 °FPassing clouds.7 mph94%30.12 "HgN/A
7:00 PM59 °FDrizzle. Fog.9 mph94%30.12 "Hg2 mi
6:30 PM59 °FPassing clouds.9 mph94%30.12 "Hg5 mi
6:00 PM59 °FPartly sunny.9 mph94%30.12 "Hg4 mi
5:30 PM59 °FDrizzle. Fog.10 mph94%30.12 "Hg2 mi
5:00 PM59 °FDrizzle. Partly sunny.9 mph100%30.12 "Hg4 mi
4:30 PM59 °FDrizzle. Fog.10 mph100%30.12 "Hg1 mi
4:00 PM59 °FDrizzle. Fog.14 mph100%30.12 "Hg1 mi
3:30 PM59 °FDrizzle. Fog.17 mph100%30.12 "Hg1 mi
3:00 PM61 °FLight rain. Partly sunny.15 mph94%30.12 "Hg5 mi
2:30 PM61 °FLight rain. Broken clouds.13 mph94%30.12 "Hg4 mi
2:00 PM61 °FLight rain. Partly sunny.16 mph94%30.15 "Hg5 mi
1:30 PM61 °FPartly sunny.16 mph94%30.15 "HgN/A
1:00 PM61 °FLight rain. Partly sunny.13 mph94%30.15 "HgN/A
12:30 PM61 °FLight rain. Partly sunny.15 mph94%30.18 "HgN/A
12:00 PM61 °FLight rain. Partly sunny.15 mph94%30.18 "Hg6 mi
11:30 AM59 °FDrizzle. Fog.17 mph100%30.21 "Hg2 mi
11:00 AM59 °FDrizzle. Fog.12 mph100%30.21 "Hg1 mi
Weather by CustomWeather, © 2016

See weather overviewHow to use our weather pages